#timestamp,LO_Frequency,Hit,StdDev 
1639580415.4,286046998.2,N
1639580435.3,286047001.0,N
1639580455.1,286047001.5,N
1639580475.8,286047000.5,N
1639580495.7,286047001.0,N
1639580515.5,286047000.9,N
1639580535.4,286047001.1,N
1639580555.2,286047000.8,N
1639580575.0,286046998.8,N
1639580575.9,286046998.8,N
1639580595.8,286046996.8,N
1639580615.6,286046999.5,N
1639580635.5,286046996.9,N
1639580655.3,286046997.5,N
1639580675.1,286046997.4,N
1639580695.9,286046998.8,N
1639580715.7,286047000.4,N
1639580735.6,286047000.2,N
1639580755.4,286047002.8,N
1639580775.2,286047002.6,N
1639580795.1,286047002.7,N
1639580796.0,286047002.7,N
1639580815.8,286047000.7,N
1639580835.6,286047000.6,N
1639580855.5,286046999.8,N
1639580875.3,286047000.1,N
1639580895.2,286047000.4,N
1639580915.9,286047000.0,N
1639580935.7,286047002.6,N
1639580955.6,286047004.1,N
1639580975.4,286047003.6,N
1639580995.2,286047003.7,N
1639581015.1,286047004.4,N
1639581016.0,286047004.4,N
1639581035.8,286047002.8,N
1639581055.7,286047002.0,N
1639581075.5,286047002.1,N
1639581095.3,286047003.5,N
1639581115.2,286047002.4,N
1639581135.0,286046999.2,N
1639581135.9,286046999.2,N
1639581155.8,286047000.5,N
1639581175.6,286047000.3,N
1639581195.4,286047002.7,N
1639581215.3,286047000.7,N
1639581235.1,286047000.0,N
1639581255.9,286047002.1,N
1639581275.7,286047002.3,N
1639581295.5,286047000.2,N
1639581315.4,286047002.3,N
1639581335.2,286047000.2,N
1639581355.0,286047000.2,N
1639581355.9,286047000.2,N
1639581375.8,286047001.0,N
1639581395.6,286046998.5,N
1639581415.5,286046997.8,N
1639581435.3,286046997.0,N
1639581455.1,286046997.1,N
1639581475.9,286046996.9,N
1639581495.7,286046996.5,N
1639581515.5,286046998.9,N
1639581535.4,286046999.1,N
1639581555.2,286046998.3,N
1639581575.0,286046999.6,N
1639581576.0,286046999.6,N
1639581595.8,286046996.7,N
1639581615.6,286046999.1,N
1639581635.5,286046997.7,N
1639581655.3,286046996.5,N
1639581675.1,286046997.7,N
1639581695.9,286046997.1,N
1639581715.7,286046999.6,N
1639581735.5,286046999.0,N
1639581755.4,286046998.6,N
1639581775.2,286047000.7,N
1639581795.1,286046998.6,N
1639581796.0,286046998.6,N
1639581815.8,286046997.4,N
1639581835.6,286046995.3,Y
1639581855.5,286046998.0,P
1639581875.3,286046995.5,P
1639581895.2,286046993.3,P
1639581915.9,286046996.2,N
1639581935.7,286046997.9,N
1639581955.6,286046997.1,N
1639581975.4,286046997.3,N
1639581995.2,286046997.9,N
1639582015.1,286046995.2,Y
1639582016.0,286046995.2,P
1639582035.8,286046996.6,P
1639582055.7,286046998.0,N
1639582075.5,286046999.2,N
1639582095.3,286046998.3,N
1639582115.2,286047002.7,N
1639582135.0,286047001.6,N
1639582135.9,286047001.6,N
1639582155.8,286047002.2,N
1639582175.6,286047002.6,N
1639582195.4,286047004.3,N
1639582215.3,286047003.4,N
1639582235.1,286047005.5,N
1639582255.8,286047005.8,N
1639582275.7,286046999.8,N
1639582295.5,286047000.4,N
1639582315.4,286047001.1,N
1639582335.2,286047000.1,N
1639582355.0,286047000.7,N
1639582355.9,286047000.7,N
1639582375.8,286047000.7,N
1639582395.6,286046999.8,N
1639582415.4,286047004.3,N
1639582435.3,286047000.1,N
1639582455.1,286047000.1,N
1639582475.9,286047002.5,N
1639582495.7,286047000.0,N
1639582515.5,286047001.7,N
1639582535.4,286047003.7,N
1639582555.2,286047005.2,N
1639582575.0,286047005.3,N
1639582575.9,286047005.3,N
1639582595.8,286047003.4,N
1639582615.6,286047005.9,N
1639582635.5,286047003.0,N
1639582655.3,286047003.8,N
1639582675.1,286047004.7,N
1639582695.9,286047006.0,N
1639582715.7,286047001.5,N
1639582735.5,286047002.7,N
1639582755.4,286047002.4,N
1639582775.2,286047002.8,N
1639582795.1,286047002.2,N
1639582796.0,286047002.2,N
1639582815.8,286047002.5,N
1639582835.6,286047003.3,N
1639582855.5,286047005.1,N
1639582875.3,286047004.9,N
1639582895.1,286047005.7,Y
1639582915.9,286047002.4,P
1639582935.7,286047002.3,P
1639582955.6,286047000.4,N
1639582975.4,286047001.1,N
1639582995.2,286047000.8,N
1639583015.1,286047001.2,N
1639583016.0,286047001.2,N
1639583035.8,286047000.3,N
1639583055.6,286047002.4,N
1639583075.5,286047002.3,N
1639583095.3,286047000.4,N
1639583115.2,286046999.9,N
1639583135.9,286046999.7,N
1639583155.7,286047002.3,N
1639583175.6,286047002.8,N
1639583195.4,286047002.2,N
1639583215.3,286047002.5,N
1639583235.1,286047002.4,N
1639583236.0,286047002.4,N
1639583255.8,286047002.3,N
1639583275.7,286046998.1,N
1639583295.5,286047002.8,N
1639583315.4,286047001.2,N
1639583335.2,286046998.3,N
1639583355.0,286046996.7,N
1639583355.9,286046996.7,N
1639583375.8,286046996.9,N
1639583395.6,286046996.9,N
1639583415.4,286046995.0,N
1639583435.3,286046996.4,N
1639583455.1,286046997.5,N
1639583475.9,286046997.2,N
1639583495.7,286046999.1,N
1639583515.5,286046998.1,N
1639583535.4,286046998.4,N
1639583555.2,286046998.8,N
1639583575.0,286046998.9,N
1639583575.9,286046998.9,N
1639583595.8,286046998.9,N
1639583615.6,286047000.8,N
1639583635.5,286047002.6,N
1639583655.3,286047001.6,N
1639583675.1,286047002.5,N
1639583695.9,286047004.2,N
1639583715.7,286047003.8,N
1639583735.5,286047003.7,N
1639583755.4,286047003.7,N
1639583775.2,286047001.4,N
1639583795.1,286047004.0,N
1639583796.0,286047004.0,N
1639583815.8,286047001.7,N
1639583835.6,286047004.2,N
1639583855.5,286047003.8,N
1639583875.3,286047002.2,N
1639583895.1,286047001.5,N
1639583915.9,286047001.4,N
1639583935.7,286047002.7,N
1639583955.6,286047001.9,N
1639583975.4,286047002.5,N
1639583995.2,286047001.7,N
